HAL810 PHNL-KLAX

Flight info

Callsign HAL810
Flight time 4h 40m
Altitude 39000
Route MKK5 KOLEA CLUTS R465 CIVIT R585 GITLE ADUMM GALIP AUDIA MQO BURGL IRNMN2
Aircraft A332/H-SDE3GHIJ2J3J5M1RVWXY/LB2D1

Departure

Time 2026-04-20 13:06
Airport Daniel K. Inouye International Airport (PHNL)

Arrival

Time 2026-04-20 17:46
Airport Los Angeles International Airport (KLAX)
Time Latitude Longitude Altitude Speed Heading
2026-04-20 12:41 21.33676 -157.92359 28 ft 0 kts 179°
2026-04-20 12:55 21.33678 -157.92359 28 ft 1 kts 180°
2026-04-20 12:55 21.33695 -157.92358 28 ft 3 kts 178°
2026-04-20 12:55 21.33714 -157.92362 28 ft 3 kts 151°
2026-04-20 12:55 21.33730 -157.92370 28 ft 3 kts 189°
2026-04-20 12:56 21.33740 -157.92364 28 ft 3 kts 256°
2026-04-20 12:56 21.33742 -157.92352 28 ft 2 kts 269°
2026-04-20 12:56 21.33742 -157.92333 28 ft 2 kts 269°
2026-04-20 12:56 21.33742 -157.92328 28 ft 1 kts 269°
2026-04-20 12:58 21.33742 -157.92331 28 ft 1 kts 269°
2026-04-20 12:58 21.33743 -157.92359 28 ft 7 kts 272°
2026-04-20 12:59 21.33750 -157.92417 28 ft 9 kts 278°
2026-04-20 12:59 21.33760 -157.92495 28 ft 11 kts 275°
2026-04-20 12:59 21.33725 -157.92575 28 ft 13 kts 221°
2026-04-20 12:59 21.33637 -157.92615 28 ft 15 kts 189°
2026-04-20 13:00 21.33536 -157.92591 28 ft 16 kts 150°
2026-04-20 13:00 21.33435 -157.92528 28 ft 17 kts 167°
2026-04-20 13:00 21.33311 -157.92539 28 ft 19 kts 190°
2026-04-20 13:00 21.33179 -157.92568 28 ft 20 kts 195°
2026-04-20 13:01 21.33053 -157.92637 28 ft 21 kts 219°
2026-04-20 13:01 21.32943 -157.92748 28 ft 22 kts 226°
2026-04-20 13:01 21.32809 -157.92809 28 ft 22 kts 177°
2026-04-20 13:01 21.32742 -157.92847 28 ft 9 kts 260°
2026-04-20 13:02 21.32744 -157.92927 28 ft 14 kts 270°
2026-04-20 13:02 21.32744 -157.93054 28 ft 20 kts 270°
2026-04-20 13:02 21.32742 -157.93225 28 ft 26 kts 269°
2026-04-20 13:02 21.32741 -157.93434 28 ft 30 kts 270°
2026-04-20 13:03 21.32742 -157.93672 28 ft 33 kts 269°
2026-04-20 13:03 21.32741 -157.93915 28 ft 32 kts 270°
2026-04-20 13:03 21.32742 -157.94095 28 ft 9 kts 270°
2026-04-20 13:03 21.32743 -157.94169 28 ft 11 kts 270°
2026-04-20 13:04 21.32743 -157.94262 28 ft 14 kts 270°
2026-04-20 13:04 21.32685 -157.94328 28 ft 14 kts 186°
2026-04-20 13:04 21.32583 -157.94325 28 ft 16 kts 180°
2026-04-20 13:04 21.32531 -157.94313 28 ft 3 kts 131°
2026-04-20 13:05 21.32525 -157.94282 28 ft 6 kts 92°
2026-04-20 13:05 21.32525 -157.94216 28 ft 17 kts 89°
2026-04-20 13:05 21.32526 -157.93858 28 ft 86 kts 90°
2026-04-20 13:05 21.32526 -157.92929 28 ft 161 kts 90°
2026-04-20 13:06 21.32521 -157.91578 676 ft 189 kts 90°
2026-04-20 13:06 21.32532 -157.90145 1885 ft 197 kts 89°
2026-04-20 13:06 21.32239 -157.88663 2839 ft 211 kts 114°
2026-04-20 13:06 21.31284 -157.87390 3441 ft 230 kts 137°
2026-04-20 13:07 21.29847 -157.86553 4053 ft 247 kts 159°
2026-04-20 13:07 21.28162 -157.86043 4744 ft 256 kts 163°
2026-04-20 13:07 21.26414 -157.85574 5395 ft 263 kts 164°
2026-04-20 13:07 21.24607 -157.85094 6089 ft 271 kts 164°
2026-04-20 13:08 21.22801 -157.84479 6844 ft 276 kts 150°
2026-04-20 13:08 21.21370 -157.83144 7613 ft 276 kts 124°
2026-04-20 13:08 21.20602 -157.81258 8367 ft 280 kts 104°
2026-04-20 13:08 21.20206 -157.79201 9129 ft 284 kts 100°
2026-04-20 13:09 21.19871 -157.77093 9856 ft 290 kts 99°
2026-04-20 13:09 21.19537 -157.74920 10373 ft 304 kts 99°
2026-04-20 13:09 21.19282 -157.72596 10682 ft 324 kts 91°
2026-04-20 13:09 21.19552 -157.70161 10960 ft 344 kts 73°
2026-04-20 13:10 21.20470 -157.67716 11231 ft 363 kts 64°
2026-04-20 13:10 21.21727 -157.65297 11597 ft 377 kts 58°
2026-04-20 13:10 21.23175 -157.62913 12163 ft 385 kts 56°
2026-04-20 13:10 21.24704 -157.60537 12794 ft 389 kts 54°
2026-04-20 13:11 21.26264 -157.58134 13434 ft 394 kts 54°
2026-04-20 13:11 21.27825 -157.55696 14099 ft 398 kts 55°
2026-04-20 13:11 21.29382 -157.53220 14717 ft 402 kts 56°
2026-04-20 13:11 21.30939 -157.50706 15344 ft 406 kts 56°
2026-04-20 13:12 21.32481 -157.48188 15900 ft 411 kts 56°
2026-04-20 13:12 21.34052 -157.45610 16506 ft 415 kts 56°
2026-04-20 13:12 21.35637 -157.43002 17069 ft 419 kts 56°
2026-04-20 13:12 21.37236 -157.40368 17621 ft 423 kts 56°
2026-04-20 13:13 21.38851 -157.37708 18146 ft 427 kts 56°
2026-04-20 13:13 21.40480 -157.35028 18671 ft 431 kts 56°
2026-04-20 13:13 21.42127 -157.32317 19175 ft 435 kts 56°
2026-04-20 13:13 21.43786 -157.29587 19674 ft 438 kts 56°
2026-04-20 13:14 21.45457 -157.26835 20147 ft 442 kts 56°
2026-04-20 13:14 21.47123 -157.24092 20600 ft 446 kts 56°
2026-04-20 13:14 21.48826 -157.21285 21045 ft 450 kts 56°
2026-04-20 13:14 21.50544 -157.18451 21483 ft 454 kts 56°
2026-04-20 13:15 21.52271 -157.15601 21914 ft 457 kts 56°
2026-04-20 13:15 21.54015 -157.12724 22327 ft 461 kts 56°
2026-04-20 13:15 21.55770 -157.09826 22727 ft 465 kts 56°
2026-04-20 13:15 21.57540 -157.06900 23135 ft 468 kts 56°
2026-04-20 13:16 21.59320 -157.03956 23522 ft 471 kts 56°
2026-04-20 13:16 21.61116 -157.00984 23883 ft 475 kts 56°
2026-04-20 13:16 21.62928 -156.97984 24258 ft 479 kts 56°
2026-04-20 13:16 21.64723 -156.95011 24643 ft 482 kts 56°
2026-04-20 13:17 21.66559 -156.91967 24978 ft 486 kts 56°
2026-04-20 13:17 21.68406 -156.88905 25306 ft 490 kts 56°
2026-04-20 13:17 21.70268 -156.85815 25662 ft 494 kts 56°
2026-04-20 13:17 21.72141 -156.82706 25987 ft 497 kts 56°
2026-04-20 13:18 21.74032 -156.79565 26296 ft 501 kts 56°
2026-04-20 13:18 21.75937 -156.76398 26608 ft 505 kts 56°
2026-04-20 13:18 21.77853 -156.73212 26907 ft 509 kts 56°
2026-04-20 13:18 21.79754 -156.70049 27237 ft 512 kts 56°
2026-04-20 13:19 21.81690 -156.66826 27544 ft 515 kts 56°
2026-04-20 13:19 21.83643 -156.63574 27836 ft 519 kts 56°
2026-04-20 13:19 21.85603 -156.60307 28147 ft 522 kts 56°
2026-04-20 13:19 21.87584 -156.57004 28409 ft 526 kts 57°
2026-04-20 13:20 21.89571 -156.53686 28721 ft 528 kts 57°
2026-04-20 13:20 21.91569 -156.50349 29000 ft 532 kts 57°
2026-04-20 13:20 21.93582 -156.46988 29282 ft 535 kts 57°
2026-04-20 13:20 21.95606 -156.43604 29550 ft 537 kts 57°
2026-04-20 13:21 21.97635 -156.40208 29794 ft 541 kts 57°
2026-04-20 13:21 21.99683 -156.36779 30039 ft 545 kts 57°
2026-04-20 13:21 22.01732 -156.33345 30429 ft 543 kts 57°
2026-04-20 13:21 22.03747 -156.29964 30847 ft 542 kts 57°
2026-04-20 13:22 22.05795 -156.26529 31079 ft 546 kts 57°
2026-04-20 13:22 22.07857 -156.23067 31289 ft 549 kts 57°
2026-04-20 13:22 22.09923 -156.19599 31645 ft 549 kts 57°
2026-04-20 13:22 22.11987 -156.16132 31932 ft 551 kts 57°
2026-04-20 13:23 22.14063 -156.12642 32223 ft 553 kts 57°
2026-04-20 13:23 22.16144 -156.09143 32516 ft 554 kts 57°
2026-04-20 13:23 22.18230 -156.05630 32828 ft 555 kts 57°
2026-04-20 13:23 22.20288 -156.02163 33102 ft 557 kts 57°
2026-04-20 13:24 22.22384 -155.98629 33368 ft 559 kts 57°
2026-04-20 13:24 22.24482 -155.95089 33637 ft 560 kts 57°
2026-04-20 13:24 22.26580 -155.91545 33919 ft 560 kts 57°
2026-04-20 13:24 22.28684 -155.87990 34178 ft 562 kts 57°
2026-04-20 13:25 22.30791 -155.84429 34476 ft 562 kts 57°
2026-04-20 13:25 22.32892 -155.80873 34850 ft 561 kts 57°
2026-04-20 13:25 22.34990 -155.77320 35170 ft 560 kts 57°
2026-04-20 13:25 22.37054 -155.73824 35502 ft 559 kts 57°
2026-04-20 13:26 22.39146 -155.70278 35808 ft 558 kts 57°
2026-04-20 13:26 22.41231 -155.66738 36100 ft 558 kts 57°
2026-04-20 13:26 22.43315 -155.63201 36394 ft 558 kts 57°
2026-04-20 13:26 22.45398 -155.59665 36660 ft 557 kts 57°
2026-04-20 13:27 22.47480 -155.56128 36884 ft 558 kts 57°
2026-04-20 13:27 22.49564 -155.52586 37162 ft 557 kts 57°
2026-04-20 13:27 22.51632 -155.49064 37503 ft 554 kts 57°
2026-04-20 13:27 22.53697 -155.45547 37825 ft 552 kts 57°
2026-04-20 13:28 22.55751 -155.42047 38075 ft 551 kts 57°
2026-04-20 13:28 22.57804 -155.38545 38323 ft 550 kts 57°
2026-04-20 13:28 22.59854 -155.35047 38519 ft 551 kts 57°
2026-04-20 13:28 22.61905 -155.31545 38695 ft 551 kts 57°
2026-04-20 13:29 22.63956 -155.28041 38895 ft 551 kts 57°
2026-04-20 13:29 22.66012 -155.24527 39026 ft 552 kts 57°
2026-04-20 13:29 22.68040 -155.21059 39045 ft 551 kts 57°
2026-04-20 13:30 22.72123 -155.14065 39045 ft 549 kts 57°
2026-04-20 13:30 22.76203 -155.07067 39045 ft 549 kts 57°
2026-04-20 13:31 22.80281 -155.00062 39036 ft 549 kts 57°
2026-04-20 13:31 22.84360 -154.93046 39036 ft 550 kts 57°
2026-04-20 13:32 22.88439 -154.86022 39036 ft 550 kts 57°
2026-04-20 13:32 22.92511 -154.79002 39035 ft 550 kts 57°
2026-04-20 13:33 22.96583 -154.71970 39036 ft 550 kts 58°
2026-04-20 13:33 23.00630 -154.64987 39036 ft 550 kts 57°
2026-04-20 13:34 23.04823 -154.58028 39037 ft 550 kts 56°
2026-04-20 13:34 23.09070 -154.51112 39037 ft 550 kts 56°
2026-04-20 13:35 23.13320 -154.44171 39035 ft 551 kts 56°
2026-04-20 13:35 23.17549 -154.37226 39034 ft 551 kts 56°
2026-04-20 13:36 23.21745 -154.30317 39036 ft 551 kts 56°
2026-04-20 13:36 23.25961 -154.23358 39037 ft 551 kts 56°
2026-04-20 13:37 23.30180 -154.16387 39037 ft 552 kts 56°
2026-04-20 13:37 23.34406 -154.09396 39036 ft 553 kts 56°
2026-04-20 13:38 23.38633 -154.02396 39036 ft 553 kts 57°
2026-04-20 13:38 23.42853 -153.95395 39036 ft 553 kts 56°
2026-04-20 13:39 23.47041 -153.88439 39036 ft 552 kts 56°
2026-04-20 13:39 23.51254 -153.81431 39036 ft 553 kts 56°
2026-04-20 13:40 23.55468 -153.74416 39035 ft 553 kts 57°
2026-04-20 13:40 23.59687 -153.67378 39036 ft 553 kts 57°
2026-04-20 13:41 23.63897 -153.60350 39035 ft 553 kts 57°
2026-04-20 13:41 23.68079 -153.53356 39036 ft 553 kts 57°
2026-04-20 13:42 23.72278 -153.46323 39036 ft 552 kts 57°
2026-04-20 13:42 23.78563 -153.35780 39035 ft 552 kts 57°
2026-04-20 13:43 23.82763 -153.28755 39037 ft 552 kts 56°
2026-04-20 13:43 23.86964 -153.21734 39036 ft 551 kts 56°
2026-04-20 13:44 23.90450 -153.15904 39036 ft 551 kts 56°
2026-04-20 13:44 23.94638 -153.08884 39036 ft 550 kts 56°
2026-04-20 13:45 23.98812 -153.01875 39035 ft 550 kts 56°
2026-04-20 13:45 24.02991 -152.94847 39036 ft 550 kts 56°
2026-04-20 13:46 24.07128 -152.87878 39035 ft 549 kts 56°
2026-04-20 13:46 24.11285 -152.80869 39036 ft 549 kts 56°
2026-04-20 13:47 24.15440 -152.73855 39036 ft 548 kts 56°
2026-04-20 13:47 24.19586 -152.66845 39036 ft 548 kts 56°
2026-04-20 13:48 24.23727 -152.59834 39036 ft 548 kts 56°
2026-04-20 13:48 24.27867 -152.52812 39036 ft 548 kts 56°
2026-04-20 13:49 24.32004 -152.45785 39035 ft 548 kts 56°
2026-04-20 13:49 24.36105 -152.38812 39027 ft 548 kts 56°
2026-04-20 13:50 24.40230 -152.31785 39027 ft 547 kts 56°
2026-04-20 13:50 24.44353 -152.24756 39027 ft 548 kts 56°
2026-04-20 13:51 24.48478 -152.17708 39027 ft 547 kts 56°
2026-04-20 13:51 24.52587 -152.10678 39043 ft 547 kts 56°
2026-04-20 13:52 24.56668 -152.03688 39045 ft 547 kts 56°
2026-04-20 13:52 24.60770 -151.96652 39045 ft 546 kts 56°
2026-04-20 13:53 24.64872 -151.89604 39045 ft 546 kts 56°
2026-04-20 13:53 24.68964 -151.82564 39045 ft 546 kts 56°
2026-04-20 13:54 24.73050 -151.75525 39046 ft 546 kts 56°
2026-04-20 13:54 24.77129 -151.68486 39045 ft 545 kts 56°
2026-04-20 13:55 24.81204 -151.61444 39046 ft 545 kts 56°
2026-04-20 13:55 24.85273 -151.54402 39045 ft 545 kts 56°
2026-04-20 13:56 24.89314 -151.47403 39045 ft 544 kts 56°
2026-04-20 13:56 24.93376 -151.40351 39045 ft 544 kts 56°
2026-04-20 13:57 24.97425 -151.33309 39045 ft 544 kts 56°
2026-04-20 13:57 25.01477 -151.26253 39045 ft 544 kts 56°
2026-04-20 13:58 25.05521 -151.19206 39046 ft 543 kts 56°
2026-04-20 13:58 25.09560 -151.12158 39045 ft 543 kts 56°
2026-04-20 13:59 25.13598 -151.05100 39044 ft 544 kts 56°
2026-04-20 13:59 25.17633 -150.98029 39045 ft 544 kts 56°
2026-04-20 14:00 25.21663 -150.90950 39045 ft 544 kts 56°
2026-04-20 14:00 25.25696 -150.83869 39045 ft 544 kts 56°
2026-04-20 14:01 25.29703 -150.76825 39045 ft 545 kts 56°
2026-04-20 14:01 25.33740 -150.69714 39045 ft 545 kts 56°
2026-04-20 14:02 25.37767 -150.62611 39045 ft 545 kts 56°
2026-04-20 14:02 25.41799 -150.55486 39045 ft 545 kts 56°
2026-04-20 14:03 25.45800 -150.48409 39045 ft 546 kts 56°
2026-04-20 14:03 25.49827 -150.41272 39045 ft 547 kts 56°
2026-04-20 14:04 25.53855 -150.34119 39045 ft 547 kts 56°
2026-04-20 14:04 25.57880 -150.26961 39045 ft 547 kts 56°
2026-04-20 14:05 25.61903 -150.19798 39045 ft 548 kts 56°
2026-04-20 14:05 25.65924 -150.12626 39045 ft 548 kts 56°
2026-04-20 14:06 25.69948 -150.05436 39045 ft 549 kts 56°
2026-04-20 14:06 25.73949 -149.98279 39036 ft 548 kts 56°
2026-04-20 14:07 25.77967 -149.91082 39036 ft 549 kts 56°
2026-04-20 14:07 25.81992 -149.83864 39036 ft 549 kts 56°
2026-04-20 14:08 25.86012 -149.76637 39036 ft 549 kts 56°
2026-04-20 14:08 25.89995 -149.69466 39035 ft 549 kts 56°
2026-04-20 14:09 25.94004 -149.62239 39035 ft 548 kts 56°
2026-04-20 14:09 25.98000 -149.55021 39036 ft 548 kts 56°
2026-04-20 14:10 26.01994 -149.47797 39035 ft 548 kts 56°
2026-04-20 14:10 26.05980 -149.40581 39035 ft 546 kts 56°
2026-04-20 14:11 26.09921 -149.33429 39036 ft 545 kts 56°
2026-04-20 14:11 26.13875 -149.26240 39036 ft 544 kts 56°
2026-04-20 14:12 26.17823 -149.19055 39037 ft 543 kts 56°
2026-04-20 14:12 26.21757 -149.11884 39037 ft 542 kts 56°
2026-04-20 14:13 26.25679 -149.04726 39036 ft 541 kts 56°
2026-04-20 14:13 26.29588 -148.97575 39036 ft 540 kts 56°
2026-04-20 14:14 26.33465 -148.90474 39036 ft 539 kts 56°
2026-04-20 14:14 26.37358 -148.83334 39036 ft 539 kts 56°
2026-04-20 14:15 26.41251 -148.76181 39035 ft 538 kts 56°
2026-04-20 14:15 26.45130 -148.69043 39036 ft 538 kts 56°
2026-04-20 14:16 26.49001 -148.61901 39035 ft 538 kts 56°
2026-04-20 14:16 26.52874 -148.54757 39037 ft 537 kts 56°
2026-04-20 14:17 26.56742 -148.47608 39037 ft 539 kts 56°
2026-04-20 14:17 26.60620 -148.40426 39036 ft 541 kts 56°
2026-04-20 14:18 26.64504 -148.33222 39036 ft 541 kts 56°
2026-04-20 14:18 26.68385 -148.26007 39036 ft 541 kts 56°
2026-04-20 14:19 26.72235 -148.18842 39036 ft 541 kts 56°
2026-04-20 14:19 26.76104 -148.11629 39027 ft 541 kts 56°
2026-04-20 14:20 26.79971 -148.04409 39026 ft 540 kts 56°
2026-04-20 14:20 26.83834 -147.97186 39027 ft 539 kts 56°
2026-04-20 14:21 26.87682 -147.89980 39026 ft 538 kts 56°
2026-04-20 14:21 26.91526 -147.82771 39026 ft 538 kts 56°
2026-04-20 14:22 26.95327 -147.75625 39027 ft 537 kts 56°
2026-04-20 14:22 26.99147 -147.68431 39026 ft 536 kts 56°
2026-04-20 14:23 27.02958 -147.61243 39027 ft 536 kts 56°
2026-04-20 14:23 27.06771 -147.54043 39026 ft 535 kts 56°
2026-04-20 14:24 27.10567 -147.46864 39027 ft 535 kts 56°
2026-04-20 14:24 27.14359 -147.39679 39028 ft 535 kts 56°
2026-04-20 14:25 27.18125 -147.32535 39027 ft 534 kts 56°
2026-04-20 14:25 27.21904 -147.25352 39026 ft 533 kts 56°
2026-04-20 14:26 27.25518 -147.18068 39028 ft 535 kts 60°
2026-04-20 14:26 27.28757 -147.10521 39027 ft 536 kts 62°
2026-04-20 14:27 27.31927 -147.02949 39027 ft 535 kts 62°
2026-04-20 14:27 27.35127 -146.95407 39027 ft 534 kts 62°
2026-04-20 14:28 27.38350 -146.87878 39027 ft 534 kts 61°
2026-04-20 14:28 27.41581 -146.80350 39028 ft 534 kts 61°
2026-04-20 14:29 27.44782 -146.72873 39027 ft 533 kts 61°
2026-04-20 14:29 27.47987 -146.65360 39026 ft 532 kts 61°
2026-04-20 14:30 27.51191 -146.57839 39027 ft 532 kts 61°
2026-04-20 14:30 27.54401 -146.50298 39030 ft 538 kts 61°
2026-04-20 14:31 27.57652 -146.42646 39028 ft 543 kts 61°
2026-04-20 14:31 27.60366 -146.36244 39026 ft 543 kts 62°
2026-04-20 14:32 27.63614 -146.28556 39027 ft 541 kts 62°
2026-04-20 14:32 27.66847 -146.20895 39026 ft 540 kts 62°
2026-04-20 14:33 27.70074 -146.13239 39027 ft 540 kts 62°
2026-04-20 14:33 27.73276 -146.05629 39027 ft 539 kts 62°
2026-04-20 14:34 27.76493 -145.97971 39027 ft 539 kts 62°
2026-04-20 14:34 27.79699 -145.90317 39013 ft 538 kts 62°
2026-04-20 14:35 27.82901 -145.82660 39008 ft 539 kts 62°
2026-04-20 14:35 27.86097 -145.75003 39013 ft 538 kts 62°
2026-04-20 14:36 27.89291 -145.67335 39022 ft 539 kts 62°
2026-04-20 14:36 27.92464 -145.59709 39026 ft 539 kts 62°
2026-04-20 14:37 27.95650 -145.52030 39014 ft 539 kts 62°
2026-04-20 14:37 27.98833 -145.44351 39017 ft 539 kts 62°
2026-04-20 14:38 28.02009 -145.36669 39024 ft 539 kts 62°
2026-04-20 14:38 28.05171 -145.29005 39010 ft 536 kts 62°
2026-04-20 14:39 28.08316 -145.21365 39016 ft 534 kts 62°
2026-04-20 14:39 28.11450 -145.13746 39015 ft 534 kts 62°
2026-04-20 14:40 28.14577 -145.06124 39008 ft 533 kts 62°
2026-04-20 14:40 28.17697 -144.98504 39007 ft 532 kts 61°
2026-04-20 14:41 28.20806 -144.90897 39020 ft 531 kts 62°
2026-04-20 14:41 28.23889 -144.83338 39025 ft 531 kts 61°
2026-04-20 14:42 28.26985 -144.75732 39026 ft 530 kts 61°
2026-04-20 14:42 28.30073 -144.68131 39018 ft 529 kts 61°
2026-04-20 14:43 28.33150 -144.60545 39012 ft 529 kts 61°
2026-04-20 14:43 28.36219 -144.52964 39016 ft 528 kts 61°
2026-04-20 14:44 28.39263 -144.45428 39018 ft 528 kts 61°
2026-04-20 14:44 28.41057 -144.40985 39025 ft 528 kts 61°
2026-04-20 14:45 28.42756 -144.36768 39018 ft 528 kts 61°
2026-04-20 14:46 28.45807 -144.29182 39019 ft 528 kts 61°
2026-04-20 14:46 28.48856 -144.21586 39018 ft 528 kts 61°
2026-04-20 14:47 28.51882 -144.14034 39026 ft 528 kts 62°
2026-04-20 14:48 28.56444 -144.02620 39011 ft 528 kts 62°
2026-04-20 14:48 28.59481 -143.95003 39022 ft 528 kts 61°
2026-04-20 14:49 28.62509 -143.87399 39023 ft 527 kts 61°
2026-04-20 14:49 28.65531 -143.79789 39013 ft 527 kts 61°
2026-04-20 14:50 28.68533 -143.72218 39021 ft 528 kts 61°
2026-04-20 14:50 28.71552 -143.64587 39016 ft 527 kts 61°
2026-04-20 14:51 28.74560 -143.56973 39027 ft 527 kts 61°
2026-04-20 14:51 28.77569 -143.49330 39013 ft 528 kts 61°
2026-04-20 14:52 28.80569 -143.41694 39026 ft 528 kts 61°
2026-04-20 14:52 28.83570 -143.34043 39005 ft 528 kts 61°
2026-04-20 14:53 28.86547 -143.26447 39004 ft 528 kts 61°
2026-04-20 14:53 28.89542 -143.18787 39005 ft 528 kts 61°
2026-04-20 14:54 28.92530 -143.11127 39015 ft 528 kts 61°
2026-04-20 14:54 28.95513 -143.03468 39026 ft 529 kts 61°
2026-04-20 14:55 28.98497 -142.95784 39026 ft 528 kts 61°
2026-04-20 14:55 29.01470 -142.88114 39010 ft 528 kts 61°
2026-04-20 14:56 29.04425 -142.80477 39012 ft 528 kts 61°
2026-04-20 14:56 29.07394 -142.72789 38999 ft 528 kts 61°
2026-04-20 14:57 29.10353 -142.65106 39008 ft 528 kts 61°
2026-04-20 14:57 29.13312 -142.57416 39011 ft 528 kts 61°
2026-04-20 14:58 29.16265 -142.49720 39006 ft 528 kts 61°
2026-04-20 14:58 29.19212 -142.42027 39008 ft 527 kts 61°
2026-04-20 14:59 29.22132 -142.34386 39005 ft 527 kts 61°
2026-04-20 14:59 29.25069 -142.26682 39007 ft 527 kts 61°
2026-04-20 15:00 29.28001 -142.18985 39007 ft 526 kts 61°
2026-04-20 15:00 29.30925 -142.11287 39012 ft 526 kts 61°
2026-04-20 15:01 29.33843 -142.03584 39015 ft 526 kts 61°
2026-04-20 15:01 29.36735 -141.95934 39001 ft 526 kts 61°
2026-04-20 15:02 29.39642 -141.88230 39005 ft 525 kts 61°
2026-04-20 15:02 29.42543 -141.80531 39004 ft 525 kts 61°
2026-04-20 15:03 29.45437 -141.72830 39010 ft 525 kts 61°
2026-04-20 15:03 29.48325 -141.65130 39002 ft 526 kts 61°
2026-04-20 15:04 29.51211 -141.57423 38997 ft 525 kts 61°
2026-04-20 15:04 29.54089 -141.49714 38994 ft 525 kts 61°
2026-04-20 15:05 29.56945 -141.42050 39002 ft 525 kts 61°
2026-04-20 15:05 29.59815 -141.34333 38996 ft 525 kts 61°
2026-04-20 15:06 29.62679 -141.26618 38998 ft 525 kts 61°
2026-04-20 15:06 29.65541 -141.18890 38996 ft 525 kts 61°
2026-04-20 15:07 29.68396 -141.11166 38986 ft 525 kts 61°
2026-04-20 15:07 29.71227 -141.03487 38981 ft 525 kts 61°
2026-04-20 15:08 29.74075 -140.95749 38982 ft 525 kts 61°
2026-04-20 15:08 29.76916 -140.88008 38982 ft 525 kts 61°
2026-04-20 15:09 29.79755 -140.80257 38979 ft 525 kts 61°
2026-04-20 15:09 29.82573 -140.72549 38981 ft 525 kts 62°
2026-04-20 15:10 29.85408 -140.64780 38981 ft 526 kts 62°
2026-04-20 15:10 29.88242 -140.56994 38981 ft 526 kts 62°
2026-04-20 15:11 29.91069 -140.49211 38981 ft 526 kts 62°
2026-04-20 15:11 29.93890 -140.41432 38981 ft 526 kts 61°
2026-04-20 15:12 29.96626 -140.33610 38981 ft 527 kts 63°
2026-04-20 15:12 29.99214 -140.25690 38980 ft 527 kts 64°
2026-04-20 15:13 30.01778 -140.17770 38981 ft 525 kts 63°
2026-04-20 15:13 30.04331 -140.09932 38968 ft 526 kts 63°
2026-04-20 15:14 30.06909 -140.02028 38970 ft 526 kts 64°
2026-04-20 15:14 30.09482 -139.94121 38971 ft 526 kts 64°
2026-04-20 15:15 30.12054 -139.86208 38972 ft 526 kts 64°
2026-04-20 15:15 30.14623 -139.78292 38971 ft 526 kts 64°
2026-04-20 15:16 30.17169 -139.70418 38971 ft 526 kts 64°
2026-04-20 15:16 30.19727 -139.62485 38971 ft 526 kts 64°
2026-04-20 15:17 30.22282 -139.54541 38971 ft 527 kts 64°
2026-04-20 15:17 30.24837 -139.46592 38970 ft 527 kts 64°
2026-04-20 15:18 30.27386 -139.38638 38971 ft 527 kts 64°
2026-04-20 15:18 30.29931 -139.30673 38971 ft 527 kts 64°
2026-04-20 15:19 30.32467 -139.22711 38972 ft 528 kts 64°
2026-04-20 15:19 30.35005 -139.14731 38971 ft 528 kts 64°
2026-04-20 15:20 30.37525 -139.06787 38971 ft 528 kts 64°
2026-04-20 15:20 30.40060 -138.98783 38972 ft 529 kts 64°
2026-04-20 15:21 30.42590 -138.90767 38971 ft 529 kts 64°
2026-04-20 15:21 30.45102 -138.82787 38971 ft 529 kts 64°
2026-04-20 15:22 30.47622 -138.74765 38970 ft 530 kts 64°
2026-04-20 15:22 30.49716 -138.68083 38970 ft 530 kts 64°
2026-04-20 15:23 30.52228 -138.60045 38971 ft 530 kts 64°
2026-04-20 15:23 30.54740 -138.51992 38971 ft 531 kts 64°
2026-04-20 15:24 30.57248 -138.43928 38972 ft 531 kts 64°
2026-04-20 15:24 30.59752 -138.35858 38971 ft 531 kts 64°
2026-04-20 15:25 30.62237 -138.27832 38972 ft 531 kts 64°
2026-04-20 15:25 30.64734 -138.19753 38971 ft 531 kts 64°
2026-04-20 15:26 30.67226 -138.11666 38970 ft 531 kts 64°
2026-04-20 15:26 30.69712 -138.03573 38972 ft 532 kts 64°
2026-04-20 15:27 30.72197 -137.95462 38971 ft 532 kts 65°
2026-04-20 15:27 30.74683 -137.87332 38971 ft 533 kts 65°
2026-04-20 15:28 30.77160 -137.79211 38971 ft 533 kts 65°
2026-04-20 15:28 30.79616 -137.71135 38971 ft 533 kts 65°
2026-04-20 15:29 30.82086 -137.62992 38972 ft 533 kts 65°
2026-04-20 15:29 30.84546 -137.54856 38972 ft 533 kts 65°
2026-04-20 15:30 30.87005 -137.46708 38971 ft 533 kts 65°
2026-04-20 15:30 30.89460 -137.38558 38971 ft 533 kts 65°
2026-04-20 15:31 30.91894 -137.30449 38971 ft 534 kts 65°
2026-04-20 15:31 30.94340 -137.22280 38971 ft 534 kts 65°
2026-04-20 15:32 30.96779 -137.14114 38971 ft 533 kts 65°
2026-04-20 15:32 30.99212 -137.05948 38971 ft 533 kts 65°
2026-04-20 15:33 31.01642 -136.97771 38971 ft 534 kts 65°
2026-04-20 15:33 31.04067 -136.89588 38971 ft 534 kts 65°
2026-04-20 15:34 31.06487 -136.81400 38971 ft 534 kts 66°
2026-04-20 15:34 31.08903 -136.73201 38965 ft 534 kts 66°
2026-04-20 15:35 31.11298 -136.65053 38963 ft 534 kts 66°
2026-04-20 15:35 31.13704 -136.56849 38962 ft 534 kts 66°
2026-04-20 15:36 31.16102 -136.48645 38962 ft 534 kts 66°
2026-04-20 15:36 31.18500 -136.40427 38962 ft 534 kts 66°
2026-04-20 15:37 31.20890 -136.32207 38962 ft 534 kts 66°
2026-04-20 15:37 31.23278 -136.23975 38961 ft 534 kts 66°
2026-04-20 15:38 31.25645 -136.15796 38961 ft 534 kts 66°
2026-04-20 15:38 31.28023 -136.07555 38961 ft 535 kts 66°
2026-04-20 15:39 31.30393 -135.99317 38963 ft 535 kts 66°
2026-04-20 15:39 31.32762 -135.91063 38963 ft 535 kts 67°
2026-04-20 15:40 31.35126 -135.82805 38962 ft 535 kts 67°
2026-04-20 15:40 31.37488 -135.74535 38961 ft 536 kts 67°
2026-04-20 15:41 31.39828 -135.66310 38962 ft 536 kts 67°
2026-04-20 15:41 31.42179 -135.58021 38962 ft 536 kts 67°
2026-04-20 15:42 31.44529 -135.49718 38969 ft 536 kts 68°
2026-04-20 15:42 31.46868 -135.41427 38970 ft 536 kts 68°
2026-04-20 15:43 31.49191 -135.33175 38971 ft 536 kts 68°
2026-04-20 15:43 31.51527 -135.24862 38981 ft 536 kts 68°
2026-04-20 15:44 31.53852 -135.16555 38979 ft 537 kts 68°
2026-04-20 15:44 31.56158 -135.08282 38980 ft 536 kts 68°
2026-04-20 15:45 31.58476 -134.99956 38980 ft 537 kts 68°
2026-04-20 15:45 31.60791 -134.91623 38972 ft 538 kts 69°
2026-04-20 15:46 31.63107 -134.83253 38971 ft 538 kts 69°
2026-04-20 15:46 31.65415 -134.74890 38971 ft 538 kts 69°
2026-04-20 15:47 31.67718 -134.66514 38971 ft 539 kts 69°
2026-04-20 15:47 31.70007 -134.58174 38971 ft 540 kts 70°
2026-04-20 15:48 31.72308 -134.49762 38971 ft 541 kts 70°
2026-04-20 15:48 31.74611 -134.41325 38970 ft 542 kts 70°
2026-04-20 15:49 31.76909 -134.32871 38971 ft 543 kts 70°
2026-04-20 15:49 31.79207 -134.24403 38971 ft 543 kts 70°
2026-04-20 15:50 31.81497 -134.15932 38971 ft 544 kts 70°
2026-04-20 15:50 31.83771 -134.07502 38971 ft 545 kts 71°
2026-04-20 15:51 31.86057 -133.98996 38971 ft 545 kts 71°
2026-04-20 15:51 31.88339 -133.90481 38971 ft 546 kts 71°
2026-04-20 15:52 31.90613 -133.81969 38972 ft 545 kts 71°
2026-04-20 15:52 31.92884 -133.73445 38972 ft 545 kts 71°
2026-04-20 15:53 31.96274 -133.60675 38971 ft 544 kts 71°
2026-04-20 15:53 31.98525 -133.52164 38972 ft 544 kts 71°
2026-04-20 15:54 32.00767 -133.43658 38980 ft 543 kts 71°
2026-04-20 15:54 32.02993 -133.35186 38974 ft 545 kts 71°
2026-04-20 15:55 32.05239 -133.26630 38972 ft 546 kts 72°
2026-04-20 15:55 32.07474 -133.18074 38971 ft 546 kts 72°
2026-04-20 15:56 32.09709 -133.09493 38971 ft 547 kts 72°
2026-04-20 15:56 32.11936 -133.00917 38979 ft 547 kts 72°
2026-04-20 15:57 32.14158 -132.92326 38981 ft 547 kts 72°
2026-04-20 15:57 32.16448 -132.83838 38980 ft 545 kts 66°
2026-04-20 15:58 32.19724 -132.75774 39072 ft 545 kts 61°
2026-04-20 15:58 32.21462 -132.71795 39275 ft 545 kts 60°
2026-04-20 15:58 32.23226 -132.67830 39503 ft 544 kts 60°
2026-04-20 15:59 32.24993 -132.63877 39729 ft 543 kts 60°
2026-04-20 15:59 32.26758 -132.59927 39911 ft 544 kts 60°
2026-04-20 15:59 32.28518 -132.55972 40095 ft 544 kts 61°
2026-04-20 15:59 32.30272 -132.52015 40290 ft 544 kts 61°
2026-04-20 16:00 32.32004 -132.48094 40440 ft 544 kts 61°
2026-04-20 16:00 32.33756 -132.44119 40588 ft 545 kts 61°
2026-04-20 16:00 32.35510 -132.40131 40768 ft 545 kts 61°
2026-04-20 16:00 32.37256 -132.36157 40938 ft 545 kts 61°
2026-04-20 16:01 32.40759 -132.28171 40973 ft 547 kts 61°
2026-04-20 16:01 32.44239 -132.20222 40971 ft 546 kts 61°
2026-04-20 16:02 32.47729 -132.12232 40970 ft 546 kts 62°
2026-04-20 16:02 32.51214 -132.04235 40971 ft 546 kts 62°
2026-04-20 16:03 32.54697 -131.96227 40972 ft 546 kts 62°
2026-04-20 16:03 32.58175 -131.88212 40972 ft 545 kts 62°
2026-04-20 16:04 32.61620 -131.80254 40971 ft 545 kts 62°
2026-04-20 16:04 32.65080 -131.72245 40970 ft 545 kts 62°
2026-04-20 16:05 32.68535 -131.64229 40971 ft 545 kts 62°
2026-04-20 16:05 32.71980 -131.56217 40972 ft 545 kts 62°
2026-04-20 16:06 32.75426 -131.48186 40970 ft 545 kts 63°
2026-04-20 16:06 32.78862 -131.40160 40975 ft 544 kts 63°
2026-04-20 16:07 32.82288 -131.32138 40961 ft 544 kts 63°
2026-04-20 16:07 32.85694 -131.24148 40962 ft 544 kts 63°
2026-04-20 16:08 32.89112 -131.16108 40962 ft 544 kts 63°
2026-04-20 16:08 32.92522 -131.08071 40961 ft 543 kts 63°
2026-04-20 16:09 32.95922 -131.00039 40970 ft 543 kts 63°
2026-04-20 16:09 32.98751 -130.93341 40970 ft 543 kts 63°
2026-04-20 16:10 33.02138 -130.85305 40970 ft 542 kts 64°
2026-04-20 16:10 33.05519 -130.77264 40973 ft 542 kts 64°
2026-04-20 16:11 33.08880 -130.69256 40971 ft 542 kts 64°
2026-04-20 16:11 33.12250 -130.61204 40961 ft 542 kts 64°
2026-04-20 16:12 33.15615 -130.53148 40961 ft 542 kts 64°
2026-04-20 16:12 33.18972 -130.45091 40962 ft 542 kts 64°
2026-04-20 16:13 33.22324 -130.37028 40962 ft 541 kts 64°
2026-04-20 16:13 33.25665 -130.28974 40968 ft 541 kts 64°
2026-04-20 16:14 33.28984 -130.20951 41003 ft 542 kts 65°
2026-04-20 16:14 33.32320 -130.12871 41014 ft 542 kts 65°
2026-04-20 16:15 33.35655 -130.04776 41017 ft 542 kts 65°
2026-04-20 16:15 33.38979 -129.96685 41009 ft 541 kts 65°
2026-04-20 16:16 33.42292 -129.88603 41011 ft 540 kts 65°
2026-04-20 16:16 33.45581 -129.80563 41009 ft 540 kts 65°
2026-04-20 16:17 33.48882 -129.72473 41009 ft 539 kts 65°
2026-04-20 16:17 33.52171 -129.64393 41008 ft 539 kts 65°
2026-04-20 16:18 33.55459 -129.56295 41025 ft 539 kts 65°
2026-04-20 16:18 33.58740 -129.48198 41033 ft 539 kts 65°
2026-04-20 16:19 33.62011 -129.40107 41034 ft 539 kts 65°
2026-04-20 16:19 33.65274 -129.32016 41016 ft 538 kts 65°
2026-04-20 16:20 33.68528 -129.23925 41020 ft 537 kts 65°
2026-04-20 16:20 33.71753 -129.15890 41023 ft 537 kts 65°
2026-04-20 16:21 33.74994 -129.07796 41019 ft 536 kts 66°
2026-04-20 16:21 33.78222 -128.99714 41017 ft 536 kts 66°
2026-04-20 16:22 33.81445 -128.91626 41018 ft 535 kts 66°
2026-04-20 16:22 33.84653 -128.83542 41017 ft 534 kts 67°
2026-04-20 16:23 33.86614 -128.75033 41019 ft 525 kts 88°
2026-04-20 16:23 33.87110 -128.66344 41020 ft 523 kts 91°
2026-04-20 16:24 33.87324 -128.57594 41020 ft 522 kts 92°
2026-04-20 16:24 33.87502 -128.48857 41019 ft 522 kts 92°
2026-04-20 16:25 33.87705 -128.40120 41014 ft 522 kts 92°
2026-04-20 16:25 33.87922 -128.31385 41017 ft 522 kts 92°
2026-04-20 16:26 33.88137 -128.22663 41015 ft 521 kts 92°
2026-04-20 16:26 33.88345 -128.13928 41017 ft 521 kts 92°
2026-04-20 16:27 33.88545 -128.05263 41006 ft 521 kts 92°
2026-04-20 16:27 33.88739 -127.96539 41011 ft 521 kts 92°
2026-04-20 16:28 33.88928 -127.87815 41007 ft 521 kts 92°
2026-04-20 16:28 33.89110 -127.79105 41010 ft 521 kts 92°
2026-04-20 16:29 33.89285 -127.70387 41007 ft 521 kts 92°
2026-04-20 16:29 33.89455 -127.61672 41011 ft 521 kts 92°
2026-04-20 16:30 33.89619 -127.52955 41007 ft 520 kts 92°
2026-04-20 16:30 33.89776 -127.44241 41008 ft 520 kts 92°
2026-04-20 16:31 33.89927 -127.35548 41008 ft 519 kts 92°
2026-04-20 16:31 33.90072 -127.26851 41008 ft 519 kts 92°
2026-04-20 16:32 33.90211 -127.18164 41004 ft 518 kts 92°
2026-04-20 16:32 33.90343 -127.09492 41010 ft 518 kts 92°
2026-04-20 16:33 33.90468 -127.00878 41009 ft 517 kts 92°
2026-04-20 16:33 33.90588 -126.92224 41010 ft 516 kts 92°
2026-04-20 16:34 33.90702 -126.83585 41008 ft 516 kts 92°
2026-04-20 16:34 33.90809 -126.74948 41005 ft 515 kts 92°
2026-04-20 16:35 33.90910 -126.66369 41011 ft 514 kts 92°
2026-04-20 16:35 33.91006 -126.57772 41030 ft 513 kts 92°
2026-04-20 16:36 33.91095 -126.49172 41024 ft 513 kts 93°
2026-04-20 16:36 33.91177 -126.40638 41021 ft 513 kts 93°
2026-04-20 16:37 33.91254 -126.32054 41024 ft 512 kts 93°
2026-04-20 16:37 33.91326 -126.23472 41023 ft 512 kts 93°
2026-04-20 16:38 33.91390 -126.14908 41026 ft 511 kts 93°
2026-04-20 16:38 33.91449 -126.06340 41028 ft 511 kts 93°
2026-04-20 16:39 33.91503 -125.97773 41026 ft 511 kts 93°
2026-04-20 16:39 33.91550 -125.89213 41026 ft 511 kts 93°
2026-04-20 16:40 33.91591 -125.80681 41026 ft 511 kts 93°
2026-04-20 16:40 33.91627 -125.72117 41032 ft 511 kts 93°
2026-04-20 16:41 33.91656 -125.63552 41029 ft 511 kts 93°
2026-04-20 16:41 33.91680 -125.54993 41027 ft 511 kts 93°
2026-04-20 16:42 33.91698 -125.46436 41027 ft 511 kts 93°
2026-04-20 16:42 33.91709 -125.37938 41015 ft 510 kts 93°
2026-04-20 16:43 33.91715 -125.29382 41025 ft 510 kts 94°
2026-04-20 16:43 33.91715 -125.20837 41026 ft 510 kts 94°
2026-04-20 16:44 33.91709 -125.12290 41028 ft 510 kts 94°
2026-04-20 16:44 33.91697 -125.03747 41031 ft 510 kts 94°
2026-04-20 16:45 33.91687 -124.95268 41025 ft 510 kts 92°
2026-04-20 16:45 33.92637 -124.86770 41030 ft 514 kts 82°
2026-04-20 16:46 33.94150 -124.78349 41029 ft 515 kts 80°
2026-04-20 16:46 33.95765 -124.69944 41026 ft 514 kts 79°
2026-04-20 16:47 33.97371 -124.61537 41026 ft 514 kts 80°
2026-04-20 16:47 33.98941 -124.53188 41028 ft 513 kts 80°
2026-04-20 16:48 34.00504 -124.44792 41023 ft 512 kts 80°
2026-04-20 16:48 34.02056 -124.36413 41023 ft 512 kts 80°
2026-04-20 16:49 34.03602 -124.28033 41030 ft 512 kts 80°
2026-04-20 16:49 34.05144 -124.19649 41020 ft 511 kts 80°
2026-04-20 16:50 34.06670 -124.11319 41032 ft 512 kts 81°
2026-04-20 16:50 34.08199 -124.02940 41018 ft 511 kts 81°
2026-04-20 16:51 34.09721 -123.94560 41015 ft 511 kts 81°
2026-04-20 16:51 34.11238 -123.86178 41019 ft 511 kts 81°
2026-04-20 16:52 34.12750 -123.77782 41027 ft 511 kts 81°
2026-04-20 16:52 34.14257 -123.69387 41014 ft 511 kts 81°
2026-04-20 16:53 34.15747 -123.61046 41020 ft 511 kts 81°
2026-04-20 16:53 34.17244 -123.52637 41018 ft 512 kts 81°
2026-04-20 16:54 34.18736 -123.44218 41018 ft 512 kts 81°
2026-04-20 16:54 34.20213 -123.35849 41019 ft 512 kts 81°
2026-04-20 16:55 34.21694 -123.27421 41037 ft 512 kts 81°
2026-04-20 16:55 34.23169 -123.18991 41047 ft 512 kts 81°
2026-04-20 16:56 34.24440 -123.11974 41043 ft 514 kts 76°
2026-04-20 16:56 34.27688 -123.02716 41048 ft 517 kts 64°
2026-04-20 16:57 34.30495 -122.96259 41045 ft 518 kts 63°
2026-04-20 16:57 34.33935 -122.88593 41044 ft 518 kts 63°
2026-04-20 16:58 34.37340 -122.80977 41046 ft 517 kts 63°
2026-04-20 16:58 34.40740 -122.73297 41044 ft 517 kts 63°
2026-04-20 16:59 34.44128 -122.65600 41045 ft 517 kts 63°
2026-04-20 16:59 34.47505 -122.57909 41047 ft 517 kts 63°
2026-04-20 17:00 34.52560 -122.46364 41053 ft 517 kts 63°
2026-04-20 17:01 34.55927 -122.38656 41043 ft 516 kts 63°
2026-04-20 17:01 34.59260 -122.31008 41043 ft 516 kts 63°
2026-04-20 17:02 34.62615 -122.23294 41042 ft 516 kts 63°
2026-04-20 17:02 34.65964 -122.15574 41045 ft 516 kts 63°
2026-04-20 17:03 34.69305 -122.07856 41048 ft 516 kts 63°
2026-04-20 17:03 34.72642 -122.00128 41057 ft 516 kts 63°
2026-04-20 17:04 34.75978 -121.92386 41058 ft 517 kts 63°
2026-04-20 17:04 34.79308 -121.84641 41054 ft 516 kts 63°
2026-04-20 17:05 34.82613 -121.76936 41054 ft 516 kts 63°
2026-04-20 17:05 34.85928 -121.69191 41054 ft 515 kts 63°
2026-04-20 17:06 34.89238 -121.61440 41055 ft 516 kts 63°
2026-04-20 17:06 34.92551 -121.53663 41054 ft 516 kts 63°
2026-04-20 17:07 34.95855 -121.45887 41055 ft 516 kts 63°
2026-04-20 17:07 34.99153 -121.38111 41054 ft 516 kts 63°
2026-04-20 17:08 35.02421 -121.30388 41054 ft 515 kts 63°
2026-04-20 17:08 35.05706 -121.22604 41054 ft 515 kts 63°
2026-04-20 17:09 35.08984 -121.14821 41054 ft 515 kts 63°
2026-04-20 17:09 35.12255 -121.07034 41054 ft 515 kts 63°
2026-04-20 17:10 35.15525 -120.99233 41064 ft 516 kts 63°
2026-04-20 17:10 35.18794 -120.91417 41064 ft 516 kts 63°
2026-04-20 17:11 35.22050 -120.83613 41065 ft 516 kts 63°
2026-04-20 17:11 35.25488 -120.75914 41063 ft 515 kts 55°
2026-04-20 17:12 35.29786 -120.68895 41066 ft 514 kts 52°
2026-04-20 17:12 35.34157 -120.62019 41064 ft 515 kts 51°
2026-04-20 17:13 35.38566 -120.55096 41067 ft 515 kts 51°
2026-04-20 17:13 35.42970 -120.48173 41068 ft 515 kts 51°
2026-04-20 17:14 35.47376 -120.41234 41070 ft 515 kts 51°
2026-04-20 17:14 35.51678 -120.34446 41071 ft 515 kts 51°
2026-04-20 17:15 35.55592 -120.27118 41071 ft 514 kts 66°
2026-04-20 17:15 35.56786 -120.22973 41073 ft 512 kts 78°
2026-04-20 17:15 35.57336 -120.18669 41075 ft 509 kts 89°
2026-04-20 17:15 35.57238 -120.14330 41071 ft 505 kts 100°
2026-04-20 17:16 35.56513 -120.10131 41073 ft 501 kts 111°
2026-04-20 17:16 35.53391 -120.02679 41068 ft 490 kts 132°
2026-04-20 17:16 35.51124 -119.99605 40876 ft 479 kts 142°
2026-04-20 17:17 35.48528 -119.97120 40621 ft 468 kts 150°
2026-04-20 17:17 35.45785 -119.94999 40368 ft 464 kts 152°
2026-04-20 17:17 35.43036 -119.92960 40102 ft 459 kts 152°
2026-04-20 17:17 35.40308 -119.90939 39698 ft 457 kts 152°
2026-04-20 17:18 35.37592 -119.88922 39267 ft 456 kts 152°
2026-04-20 17:18 35.34878 -119.86900 38831 ft 455 kts 151°
2026-04-20 17:18 35.32208 -119.84906 38403 ft 454 kts 151°
2026-04-20 17:18 35.29514 -119.82895 38099 ft 456 kts 151°
2026-04-20 17:19 35.26776 -119.80856 37864 ft 463 kts 151°
2026-04-20 17:19 35.24006 -119.78795 37642 ft 467 kts 151°
2026-04-20 17:19 35.21275 -119.76636 37418 ft 469 kts 146°
2026-04-20 17:19 35.18669 -119.74205 37109 ft 474 kts 144°
2026-04-20 17:20 35.16070 -119.71695 36508 ft 476 kts 144°
2026-04-20 17:20 35.13480 -119.69166 35763 ft 479 kts 144°
2026-04-20 17:20 35.10883 -119.66620 35118 ft 479 kts 144°
2026-04-20 17:20 35.08287 -119.64071 34470 ft 479 kts 144°
2026-04-20 17:21 35.05683 -119.61514 33794 ft 479 kts 144°
2026-04-20 17:21 35.03059 -119.58941 32793 ft 487 kts 144°
2026-04-20 17:21 35.00438 -119.56372 31775 ft 493 kts 144°
2026-04-20 17:21 34.97746 -119.53735 30732 ft 498 kts 144°
2026-04-20 17:22 34.95049 -119.51093 30006 ft 496 kts 144°
2026-04-20 17:22 34.92365 -119.48466 29270 ft 493 kts 144°
2026-04-20 17:22 34.89656 -119.45940 28600 ft 488 kts 147°
2026-04-20 17:22 34.86943 -119.43505 28056 ft 480 kts 147°
2026-04-20 17:23 34.84273 -119.41121 27694 ft 470 kts 147°
2026-04-20 17:23 34.81669 -119.38796 27317 ft 458 kts 147°
2026-04-20 17:23 34.79150 -119.36545 26849 ft 439 kts 147°
2026-04-20 17:23 34.76737 -119.34389 26352 ft 421 kts 148°
2026-04-20 17:24 34.74399 -119.32314 25831 ft 411 kts 148°
2026-04-20 17:24 34.72123 -119.30321 24976 ft 407 kts 148°
2026-04-20 17:24 34.69822 -119.28315 24450 ft 409 kts 149°
2026-04-20 17:24 34.67510 -119.26302 23948 ft 408 kts 148°
2026-04-20 17:25 34.65218 -119.24304 23478 ft 404 kts 148°
2026-04-20 17:25 34.62936 -119.22329 23003 ft 400 kts 148°
2026-04-20 17:25 34.60676 -119.20382 22517 ft 396 kts 148°
2026-04-20 17:25 34.58437 -119.18452 22045 ft 393 kts 149°
2026-04-20 17:26 34.56219 -119.16532 21574 ft 389 kts 148°
2026-04-20 17:26 34.54037 -119.14603 21057 ft 386 kts 148°
2026-04-20 17:26 34.51875 -119.12683 20567 ft 383 kts 148°
2026-04-20 17:26 34.49729 -119.10783 20093 ft 379 kts 148°
2026-04-20 17:27 34.47632 -119.08929 19652 ft 376 kts 148°
2026-04-20 17:27 34.45520 -119.07062 19194 ft 373 kts 148°
2026-04-20 17:27 34.43425 -119.05226 18746 ft 368 kts 148°
2026-04-20 17:27 34.41351 -119.03427 18308 ft 365 kts 148°
2026-04-20 17:28 34.39290 -119.01642 17871 ft 363 kts 148°
2026-04-20 17:28 34.37244 -118.99872 17444 ft 359 kts 148°
2026-04-20 17:28 34.35218 -118.98120 17008 ft 357 kts 148°
2026-04-20 17:28 34.33220 -118.96347 16578 ft 355 kts 147°
2026-04-20 17:29 34.31247 -118.94560 16145 ft 352 kts 146°
2026-04-20 17:29 34.29299 -118.92793 15730 ft 350 kts 146°
2026-04-20 17:29 34.27388 -118.91060 15397 ft 343 kts 146°
2026-04-20 17:29 34.25508 -118.89349 15121 ft 334 kts 146°
2026-04-20 17:30 34.23675 -118.87666 14749 ft 328 kts 146°
2026-04-20 17:30 34.21893 -118.86027 14366 ft 315 kts 146°
2026-04-20 17:30 34.20185 -118.84456 13975 ft 302 kts 146°
2026-04-20 17:30 34.18520 -118.82931 13622 ft 300 kts 146°
2026-04-20 17:31 34.16862 -118.81391 13269 ft 300 kts 143°
2026-04-20 17:31 34.15280 -118.79754 12812 ft 301 kts 141°
2026-04-20 17:31 34.13726 -118.78073 12393 ft 299 kts 141°
2026-04-20 17:31 34.12190 -118.76397 12049 ft 295 kts 141°
2026-04-20 17:32 34.10675 -118.74745 11707 ft 291 kts 140°
2026-04-20 17:32 34.09176 -118.73114 11389 ft 289 kts 140°
2026-04-20 17:32 34.07701 -118.71509 11070 ft 288 kts 141°
2026-04-20 17:32 34.06224 -118.69902 10833 ft 282 kts 140°
2026-04-20 17:33 34.04783 -118.68328 10592 ft 277 kts 139°
2026-04-20 17:33 34.03500 -118.66616 10276 ft 276 kts 124°
2026-04-20 17:33 34.02801 -118.64492 9975 ft 272 kts 103°
2026-04-20 17:33 34.02521 -118.62238 9674 ft 273 kts 98°
2026-04-20 17:34 34.02316 -118.59942 9374 ft 277 kts 97°
2026-04-20 17:34 34.02114 -118.57628 9060 ft 277 kts 97°
2026-04-20 17:34 34.01908 -118.55322 8750 ft 276 kts 97°
2026-04-20 17:34 34.01700 -118.53030 8444 ft 274 kts 97°
2026-04-20 17:35 34.01491 -118.50766 8147 ft 270 kts 97°
2026-04-20 17:35 34.01284 -118.48542 7836 ft 262 kts 97°
2026-04-20 17:35 34.01105 -118.46419 7541 ft 248 kts 93°
2026-04-20 17:35 34.01238 -118.44423 7203 ft 240 kts 82°
2026-04-20 17:36 34.01551 -118.42452 6882 ft 238 kts 79°
2026-04-20 17:36 34.01895 -118.40498 6616 ft 237 kts 78°
2026-04-20 17:36 34.02237 -118.38557 6351 ft 236 kts 78°
2026-04-20 17:36 34.02566 -118.36624 6085 ft 235 kts 80°
2026-04-20 17:37 34.02828 -118.34679 5929 ft 235 kts 81°
2026-04-20 17:37 34.03079 -118.32736 5589 ft 234 kts 81°
2026-04-20 17:37 34.03329 -118.30796 5216 ft 234 kts 81°
2026-04-20 17:37 34.03577 -118.28861 4840 ft 233 kts 81°
2026-04-20 17:38 34.03823 -118.26932 4466 ft 233 kts 81°
2026-04-20 17:38 34.04068 -118.25001 4115 ft 232 kts 81°
2026-04-20 17:38 34.04310 -118.23100 3992 ft 228 kts 81°
2026-04-20 17:38 34.04546 -118.21234 3990 ft 228 kts 81°
2026-04-20 17:39 34.04785 -118.19343 4001 ft 227 kts 81°
2026-04-20 17:39 34.04768 -118.17456 3988 ft 226 kts 106°
2026-04-20 17:39 34.03952 -118.15870 3991 ft 225 kts 139°
2026-04-20 17:39 34.02561 -118.15067 3996 ft 224 kts 170°
2026-04-20 17:40 34.01017 -118.14934 3836 ft 220 kts 180°
2026-04-20 17:40 33.99508 -118.14949 3603 ft 215 kts 181°
2026-04-20 17:40 33.98057 -118.15154 3286 ft 213 kts 201°
2026-04-20 17:40 33.96868 -118.16167 3042 ft 208 kts 226°
2026-04-20 17:41 33.96086 -118.17532 3005 ft 190 kts 245°
2026-04-20 17:41 33.95721 -118.19011 3000 ft 182 kts 260°
2026-04-20 17:41 33.95559 -118.20518 2960 ft 181 kts 263°
2026-04-20 17:41 33.95413 -118.22019 2767 ft 179 kts 263°
2026-04-20 17:42 33.95261 -118.23487 2512 ft 174 kts 262°
2026-04-20 17:42 33.95114 -118.24894 2277 ft 164 kts 263°
2026-04-20 17:42 33.94978 -118.26216 2063 ft 154 kts 263°
2026-04-20 17:42 33.94894 -118.27042 1927 ft 146 kts 263°
2026-04-20 17:43 33.94737 -118.28576 1682 ft 135 kts 263°
2026-04-20 17:43 33.94621 -118.29695 1509 ft 134 kts 263°
2026-04-20 17:43 33.94505 -118.30814 1332 ft 135 kts 263°
2026-04-20 17:43 33.94390 -118.31930 1154 ft 134 kts 263°
2026-04-20 17:44 33.94314 -118.32666 1032 ft 134 kts 263°
2026-04-20 17:44 33.94203 -118.33778 849 ft 133 kts 263°
2026-04-20 17:44 33.94094 -118.34886 680 ft 133 kts 262°
2026-04-20 17:44 33.93976 -118.35987 511 ft 133 kts 261°
2026-04-20 17:45 33.93859 -118.37089 315 ft 132 kts 261°
2026-04-20 17:45 33.93743 -118.38184 161 ft 132 kts 262°
2026-04-20 17:45 33.93635 -118.39233 99 ft 115 kts 263°
2026-04-20 17:45 33.93555 -118.40024 100 ft 64 kts 263°
2026-04-20 17:46 33.93536 -118.40350 99 ft 24 kts 273°
2026-04-20 17:46 33.93550 -118.40471 99 ft 10 kts 284°
2026-04-20 17:46 33.93571 -118.40554 97 ft 12 kts 288°
2026-04-20 17:46 33.93595 -118.40654 98 ft 14 kts 281°
2026-04-20 17:47 33.93594 -118.40771 97 ft 14 kts 265°
2026-04-20 17:47 33.93581 -118.40885 99 ft 14 kts 262°
2026-04-20 17:47 33.93567 -118.41011 99 ft 16 kts 262°
2026-04-20 17:47 33.93551 -118.41154 98 ft 19 kts 262°
2026-04-20 17:48 33.93552 -118.41242 98 ft 6 kts 308°
2026-04-20 17:48 33.93592 -118.41259 100 ft 6 kts 350°
2026-04-20 17:48 33.93637 -118.41268 101 ft 7 kts 351°
2026-04-20 17:48 33.93691 -118.41277 101 ft 9 kts 353°
2026-04-20 17:49 33.93750 -118.41245 98 ft 10 kts 71°
2026-04-20 17:49 33.93761 -118.41150 98 ft 13 kts 83°
2026-04-20 17:49 33.93773 -118.41031 97 ft 16 kts 83°
2026-04-20 17:49 33.93785 -118.40910 99 ft 14 kts 83°
2026-04-20 17:50 33.93798 -118.40783 98 ft 16 kts 83°
2026-04-20 17:50 33.93811 -118.40649 98 ft 15 kts 84°
2026-04-20 17:50 33.93823 -118.40530 98 ft 13 kts 83°
2026-04-20 17:50 33.93833 -118.40432 99 ft 11 kts 83°
2026-04-20 17:51 33.93841 -118.40352 99 ft 8 kts 82°
2026-04-20 17:51 33.93849 -118.40290 99 ft 7 kts 82°
2026-04-20 17:51 33.93856 -118.40227 101 ft 8 kts 82°
2026-04-20 17:51 33.93863 -118.40156 100 ft 9 kts 83°
2026-04-20 17:52 33.93870 -118.40084 102 ft 7 kts 81°
2026-04-20 17:52 33.93890 -118.40045 99 ft 4 kts 34°
2026-04-20 17:52 33.93909 -118.40044 99 ft 2 kts 354°
2026-04-20 17:52 33.93927 -118.40047 98 ft 3 kts 351°
2026-04-20 17:53 33.93947 -118.40053 98 ft 3 kts 340°
2026-04-20 17:53 33.93965 -118.40067 98 ft 3 kts 323°
2026-04-20 17:53 33.93980 -118.40083 97 ft 2 kts 315°
2026-04-20 17:53 33.93987 -118.40094 97 ft 1 kts 309°
2026-04-20 17:54 33.93992 -118.40102 97 ft 2 kts 309°
2026-04-20 17:54 33.94000 -118.40113 97 ft 2 kts 308°
2026-04-20 17:54 33.94008 -118.40125 98 ft 2 kts 308°
2026-04-20 17:54 33.94012 -118.40131 98 ft 3 kts 308°
2026-04-20 17:55 33.94013 -118.40132 97 ft 0 kts 308°